Regional Weather Roundup
Issued by NWS Northern Indiana

Home | Current Version | Previous Version | Text Only | Print | Product List | Glossary On
Versions: 1 2 3 4 5 6 7 8 9 10 11 12 13 14 15 16 17 18 19 20 21 22 23 24 25 26 27 28 29 30 31 32 33 34 35 36 37 38 39 40 41 42 43 44 45 46 47 48 49 50
000
ASUS43 KIWX 210800
RWRIWX

KIWX WEATHER ROUNDUP
NATIONAL WEATHER SERVICE NORTHERN INDIANA
400 AM EDT SAT APR 21 2018

NOTE: "FAIR" INDICATES FEW OR NO CLOUDS BELOW 12,000 FEET WITH NO
SIGNIFICANT WEATHER AND/OR OBSTRUCTIONS TO VISIBILITY.

* THESE STATIONS ARE NOT UNDER NWS QUALITY CONTROL. THEY ALSO MAY NOT
  REPORT WEATHER SUCH AS PRECIPITATION OR FOG.

INZ001>027-210900-
NORTHERN INDIANA

CITY           SKY/WX    TMP DP  RH WIND       PRES   REMARKS
KNOX*          FAIR      32  27  80 CALM      30.43R
SOUTH BEND     FAIR      31  20  63 CALM      30.43F
GOSHEN         FAIR      34  26  72 CALM      30.42F
MONTICELLO*    FAIR      40  21  47 CALM      30.42R
ROCHESTER*     FAIR      36  28  75 CALM      30.42F
WARSAW*        FAIR      32  28  86 CALM      30.43S
FORT WAYNE     FAIR      37  27  67 E3        30.44S
PERU/GRISSOM   FAIR     N/A N/A N/A NE3         N/A

$$
INZ028>050-210900-
CENTRAL INDIANA

CITY           SKY/WX    TMP DP  RH WIND       PRES   REMARKS
LAFAYETTE      FAIR      41  24  51 NE6       30.41S
KOKOMO*        FAIR      34  29  82 CALM      30.42S
MUNCIE*        FAIR      38  27  64 CALM      30.41F
INDIANAPOLIS   FAIR      43  24  47 E7        30.40F

$$
MIZ043>046-050>051-056>058-064>065-071>073-077>080-210900-
SOUTHWEST LOWER MICHIGAN

CITY           SKY/WX    TMP DP  RH WIND       PRES   REMARKS
BATTLE CREEK   FAIR      37  24  59 CALM      30.44S
BENTON HARBOR  FAIR      28  22  78 CALM      30.43F
COLDWATER*     FAIR      36  29  76 E3        30.44S
HILLSDALE*     FAIR      37  23  56 SE6       30.43F
HOLLAND        FAIR      31  23  72 CALM      30.45S
GRAND RAPIDS   FAIR      32  23  69 CALM      30.43F
KALAMAZOO      FAIR      33  22  63 CALM      30.44F
THREE RIVERS*  FAIR      33  28  79 CALM      30.44S

$$
OHZ001>008-015>018-024>025-210900-
NORTHWEST OHIO

CITY           SKY/WX    TMP DP  RH WIND       PRES   REMARKS
WAUSEON*       FAIR      36  27  69 CALM      30.45S
DEFIANCE       FAIR      33  26  75 CALM      30.45S
FINDLAY        FAIR      35  24  64 S3        30.44R
TOLEDO EXPRESS FAIR      34  26  72 CALM      30.46R
TOLEDO METCALF FAIR      35  24  64 CALM      30.47R
LIMA           FAIR      35  25  66 E5        30.44R WCI  31

$$
AND FOR LAKE MICHIGAN COASTAL AND OPEN LAKE BUOY OBSERVATIONS

STATION/POSITION TEMP    WIND        PRES    VSBY  WAVE
                 AIR SEA DIR/SP/G                  HT/PER
                 (F)     (DEG/KT/KT) (MB)    (MI)  (FT/S)
CALUMET HARBOR    38      40/  2/  3 1030.0F
MICHIGAN CITY     41      60/  4/  4   N/A
BURNS HARBOR      42      80/  6/  7 1030.8F
SAINT JOSEPH      39     100/  3/  4 1031.2

$$
&&




USA.gov is the U.S. government's official web portal to all federal, state and local government web resources and services.